• In Lithuania
  • List of Countries
  • For 7 days
  • Water Temperature
  • Satellite Maps
  • Weather Map
  • Weather Widgets
  • user-avatar
    Login

    Hourly Weather Erattupetta

    Today, 21 September, Friday

    Time Temperature Precipitation Wind Pressure Humidity
    00:00 +24°C° 0 mm 1 mps 735 mmHg 89%
    01:00 +24°C° 0 mm 1 mps 734 mmHg 87%
    02:00 +24°C° 0 mm 1 mps 734 mmHg 86%
    03:00 +24°C° 0 mm 1 mps 734 mmHg 86%
    04:00 +24°C° 0 mm 1 mps 734 mmHg 86%
    05:00 +23°C° 0 mm 1 mps 734 mmHg 87%
    06:00 +25°C° 0 mm 1 mps 735 mmHg 82%
    07:00 +26°C° 0 mm 1 mps 735 mmHg 76%
    08:00 +28°C° 0 mm 1 mps 736 mmHg 71%
    09:00 +29°C° 0 mm 2 mps 736 mmHg 65%
    10:00 +31°C° 0 mm 2 mps 736 mmHg 59%
    11:00 +32°C° 0 mm 2 mps 736 mmHg 52%
    12:00 +34°C° 0 mm 3 mps 735 mmHg 51%
    13:00 +34°C° 0 mm 3 mps 735 mmHg 50%
    14:00 +34°C° 0 mm 3 mps 734 mmHg 49%
    15:00 +33°C° 0 mm 3 mps 734 mmHg 54%
    16:00 +31°C° 0 mm 3 mps 734 mmHg 58%
    17:00 +30°C° 0 mm 2 mps 735 mmHg 63%
    18:00 +28°C° 0.1 mm 2 mps 735 mmHg 69%
    19:00 +27°C° 0.1 mm 1 mps 735 mmHg 76%
    20:00 +25°C° 0.1 mm 1 mps 736 mmHg 83%
    21:00 +25°C° 0 mm 1 mps 736 mmHg 83%
    22:00 +25°C° 0 mm 1 mps 736 mmHg 82%
    23:00 +23°C° 0 mm 0 mps 737 mmHg 82%

    Tomorrow, 22 September, Saturday

    Time Temperature Precipitation Wind Pressure Humidity
    00:00 +23°C° 0 mm 0 mps 736 mmHg 82%
    01:00 +24°C° 0 mm 1 mps 736 mmHg 82%
    02:00 +24°C° 0 mm 1 mps 736 mmHg 82%
    03:00 +24°C° 0 mm 1 mps 736 mmHg 83%
    04:00 +24°C° 0 mm 1 mps 736 mmHg 83%
    05:00 +24°C° 0 mm 1 mps 736 mmHg 84%
    06:00 +25°C° 0 mm 1 mps 736 mmHg 79%
    07:00 +27°C° 0 mm 1 mps 737 mmHg 75%
    08:00 +28°C° 0 mm 1 mps 737 mmHg 70%
    09:00 +30°C° 0 mm 1 mps 737 mmHg 63%
    10:00 +32°C° 0 mm 2 mps 737 mmHg 56%
    11:00 +34°C° 0 mm 2 mps 737 mmHg 49%
    12:00 +34°C° 0 mm 2 mps 737 mmHg 49%
    13:00 +35°C° 0 mm 2 mps 736 mmHg 49%
    14:00 +35°C° 0 mm 3 mps 736 mmHg 50%
    15:00 +34°C° 0.1 mm 2 mps 736 mmHg 55%
    16:00 +31°C° 0.1 mm 2 mps 736 mmHg 61%
    17:00 +30°C° 0.1 mm 2 mps 735 mmHg 67%
    18:00 +29°C° 0.2 mm 2 mps 736 mmHg 74%
    19:00 +28°C° 0.2 mm 1 mps 737 mmHg 81%
    20:00 +26°C° 0.2 mm 1 mps 737 mmHg 88%
    21:00 +24°C° 0 mm 0 mps 738 mmHg 89%
    22:00 +24°C° 0 mm 0 mps 738 mmHg 89%
    23:00 +24°C° 0 mm 0 mps 738 mmHg 90%

    Day after tomorrow, 23 September, Sunday

    Time Temperature Precipitation Wind Pressure Humidity
    00:00 +23°C° 0 mm 0 mps 738 mmHg 90%
    01:00 +23°C° 0 mm 0 mps 737 mmHg 90%
    02:00 +23°C° 0 mm 0 mps 737 mmHg 90%
    03:00 +23°C° 0 mm 0 mps 737 mmHg 90%
    04:00 +23°C° 0 mm 0 mps 737 mmHg 90%
    05:00 +22°C° 0 mm 0 mps 737 mmHg 89%
    06:00 +24°C° 0 mm 0 mps 737 mmHg 83%
    07:00 +25°C° 0 mm 0 mps 738 mmHg 76%
    08:00 +29°C° 0 mm 1 mps 739 mmHg 69%
    09:00 +30°C° 0 mm 1 mps 739 mmHg 63%
    10:00 +32°C° 0 mm 1 mps 739 mmHg 57%
    11:00 +35°C° 0 mm 2 mps 739 mmHg 51%
    12:00 +34°C° 0.1 mm 2 mps 738 mmHg 53%
    13:00 +34°C° 0.1 mm 2 mps 737 mmHg 55%
    14:00 +34°C° 0.1 mm 2 mps 736 mmHg 57%
    15:00 +31°C° 0.5 mm 2 mps 736 mmHg 63%
    16:00 +30°C° 0.5 mm 2 mps 736 mmHg 69%
    17:00 +29°C° 0.5 mm 1 mps 736 mmHg 75%
    18:00 +28°C° 0.7 mm 1 mps 737 mmHg 79%
    19:00 +27°C° 0.7 mm 1 mps 737 mmHg 83%
    20:00 +27°C° 0.7 mm 1 mps 738 mmHg 87%
    21:00 +26°C° 0.4 mm 1 mps 738 mmHg 88%
    22:00 +24°C° 0.4 mm 0 mps 738 mmHg 89%
    23:00 +24°C° 0.4 mm 0 mps 738 mmHg 90%

    24 September, Monday

    Time Temperature Precipitation Wind Pressure Humidity
    00:00 +24°C° 0 mm 0 mps 738 mmHg 90%
    01:00 +23°C° 0 mm 0 mps 737 mmHg 90%
    02:00 +25°C° 0 mm 1 mps 737 mmHg 90%
    03:00 +25°C° 0 mm 1 mps 737 mmHg 90%
    04:00 +25°C° 0 mm 1 mps 737 mmHg 89%
    05:00 +25°C° 0 mm 1 mps 737 mmHg 89%
    06:00 +26°C° 0 mm 1 mps 737 mmHg 82%
    07:00 +28°C° 0 mm 1 mps 738 mmHg 75%
    08:00 +29°C° 0 mm 1 mps 739 mmHg 69%
    09:00 +31°C° 0 mm 1 mps 738 mmHg 62%
    10:00 +33°C° 0 mm 1 mps 738 mmHg 56%
    11:00 +35°C° 0 mm 2 mps 738 mmHg 49%
    12:00 +35°C° 0.7 mm 2 mps 737 mmHg 54%
    13:00 +34°C° 0.7 mm 2 mps 736 mmHg 58%
    14:00 +32°C° 0.7 mm 2 mps 736 mmHg 63%
    15:00 +31°C° 1.7 mm 2 mps 736 mmHg 68%
    16:00 +30°C° 1.7 mm 2 mps 736 mmHg 74%
    17:00 +29°C° 1.7 mm 2 mps 736 mmHg 79%
    18:00 +28°C° 2 mm 1 mps 736 mmHg 82%
    19:00 +28°C° 2 mm 1 mps 737 mmHg 85%
    20:00 +27°C° 2 mm 1 mps 737 mmHg 88%
    21:00 +27°C° 0.5 mm 1 mps 737 mmHg 89%
    22:00 +26°C° 0.5 mm 1 mps 737 mmHg 90%
    23:00 +26°C° 0.5 mm 1 mps 737 mmHg 91%

    25 September, Tuesday

    Time Temperature Precipitation Wind Pressure Humidity
    00:00 +26°C° 0 mm 1 mps 737 mmHg 91%
    01:00 +26°C° 0 mm 1 mps 736 mmHg 91%
    02:00 +23°C° 0 mm 0 mps 736 mmHg 91%
    03:00 +23°C° 0 mm 0 mps 736 mmHg 91%
    04:00 +25°C° 0 mm 1 mps 736 mmHg 91%
    05:00 +25°C° 0 mm 1 mps 736 mmHg 91%
    06:00 +26°C° 0 mm 1 mps 737 mmHg 84%
    07:00 +28°C° 0 mm 1 mps 738 mmHg 78%
    08:00 +29°C° 0 mm 1 mps 738 mmHg 72%
    09:00 +31°C° 0 mm 1 mps 738 mmHg 64%
    10:00 +33°C° 0 mm 1 mps 738 mmHg 57%
    11:00 +35°C° 0 mm 1 mps 738 mmHg 50%
    12:00 +34°C° 0.4 mm 1 mps 737 mmHg 53%
    13:00 +35°C° 0.4 mm 2 mps 736 mmHg 56%
    14:00 +34°C° 0.4 mm 2 mps 735 mmHg 59%
    15:00 +32°C° 1.1 mm 2 mps 735 mmHg 65%
    16:00 +31°C° 1.1 mm 2 mps 735 mmHg 71%
    17:00 +30°C° 1.1 mm 2 mps 735 mmHg 77%
    18:00 +29°C° 1.2 mm 1 mps 735 mmHg 81%
    19:00 +28°C° 1.2 mm 1 mps 736 mmHg 85%
    20:00 +27°C° 1.2 mm 1 mps 737 mmHg 89%
    21:00 +27°C° 0.4 mm 1 mps 737 mmHg 90%
    22:00 +26°C° 0.4 mm 1 mps 737 mmHg 91%
    23:00 +26°C° 0.4 mm 1 mps 737 mmHg 92%

    26 September, Wednesday

    Time Temperature Precipitation Wind Pressure Humidity
    00:00 +26°C° 0.4 mm 1 mps 736 mmHg 92%
    01:00 +26°C° 0.4 mm 1 mps 736 mmHg 92%
    02:00 +25°C° 0.4 mm 1 mps 735 mmHg 92%
    03:00 +25°C° 0 mm 1 mps 735 mmHg 92%
    04:00 +25°C° 0 mm 1 mps 736 mmHg 92%
    05:00 +25°C° 0 mm 1 mps 736 mmHg 91%
    06:00 +26°C° 0 mm 1 mps 736 mmHg 85%
    07:00 +28°C° 0 mm 1 mps 737 mmHg 79%
    08:00 +29°C° 0 mm 1 mps 738 mmHg 73%
    09:00 +31°C° 0.1 mm 1 mps 738 mmHg 66%
    10:00 +33°C° 0.1 mm 1 mps 737 mmHg 59%
    11:00 +34°C° 0.1 mm 1 mps 737 mmHg 52%
    12:00 +34°C° 1 mm 1 mps 736 mmHg 55%
    13:00 +34°C° 1 mm 1 mps 735 mmHg 57%
    14:00 +34°C° 1 mm 2 mps 735 mmHg 60%
    15:00 +32°C° 1.3 mm 2 mps 735 mmHg 65%
    16:00 +31°C° 1.3 mm 2 mps 735 mmHg 71%
    17:00 +30°C° 1.3 mm 1 mps 735 mmHg 77%
    18:00 +29°C° 0.9 mm 1 mps 735 mmHg 80%
    19:00 +28°C° 0.9 mm 1 mps 736 mmHg 84%
    20:00 +27°C° 0.9 mm 1 mps 736 mmHg 88%
    21:00 +25°C° 0.2 mm 0 mps 736 mmHg 89%
    22:00 +24°C° 0.2 mm 0 mps 736 mmHg 90%
    23:00 +24°C° 0.2 mm 0 mps 736 mmHg 91%
    Show more